This demonstration page uses our WeatherBlox Daily Observations layout. Learn more.

Left ArrowRight Arrow

41.86663, -103.66717

Hourly Observations for July 23, 2021

Temp ( °F °C ) Dew Point ( °F °C ) Humidity (%) Winds ( mph kmh ) Pressure ( in mb ) Visibility ( mi km ) Precip ( " mm )
12:53 am 00:53 Clear 73 22.8 61 16.1 66 66 E 7 11 29.84 1010 10 16 0.00 0.00
1:53 am 01:53 Clear 72 22.2 60 15.6 66 66 ESE 5 7 29.83 1010 10 16 0.00 0.00
2:53 am 02:53 Clear 72 22.2 60 15.6 66 66 ESE 12 19 29.82 1010 10 16 0.00 0.00
3:53 am 03:53 Clear 71 21.7 60 15.6 68 68 ESE 7 11 29.81 1010 10 16 0.00 0.00
4:53 am 04:53 Clear 69 20.6 60 15.6 73 73 ESE 5 7 29.82 1010 10 16 0.00 0.00
5:53 am 05:53 Mostly Sunny 69 20.6 60 15.6 73 73 Calm 29.84 1011 10 16 0.00 0.00
6:53 am 06:53 Sunny 70 21.1 61 16.1 73 73 W 3 6 29.87 1012 10 16 0.00 0.00
7:53 am 07:53 Sunny 73 22.8 62 16.7 69 69 NNW 3 6 29.90 1012 10 16 0.00 0.00
8:53 am 08:53 Sunny 75 23.9 62 16.7 64 64 WNW 7 11 29.92 1013 10 16 0.00 0.00
9:53 am 09:53 Sunny 78 25.6 61 16.1 56 56 NW 7 11 29.91 1013 10 16 0.00 0.00
10:53 am 10:53 Mostly Sunny 82 27.8 62 16.7 51 51 WNW 9 15 29.90 1013 10 16 0.00 0.00
11:53 am 11:53 Sunny 84 28.9 62 16.7 48 48 W 10 17 29.91 1013 10 16 0.00 0.00
12:53 pm 12:53 Sunny 87 30.6 62 16.7 43 43 W 10 17 29.90 1012 10 16 0.00 0.00
1:53 pm 13:53 Sunny 93 33.9 59 15 32 32 NNW 15 24 29.89 1012 10 16 0.00 0.00
2:53 pm 14:53 Sunny 92 33.3 57 13.9 31 31 WNW 21 33 29.90 1012 10 16 0.00 0.00
3:53 pm 15:53 Sunny 94 34.4 56 13.3 28 28 NNW 18 30 29.89 1012 10 16 0.00 0.00
4:53 pm 16:53 Sunny 90 32.2 49 9.4 24 24 N 14 22 29.90 1012 10 16 0.00 0.00
5:53 pm 17:53 Sunny 90 32.2 51 10.6 26 26 N 9 15 29.88 1012 10 16 0.00 0.00
6:53 pm 18:53 Sunny 87 30.6 54 12.2 32 32 NNE 8 13 29.89 1012 10 16 0.00 0.00
7:53 pm 19:53 Sunny 84 28.9 55 12.8 37 37 NE 8 13 29.90 1013 10 16 0.00 0.00
8:53 pm 20:53 Clear 78 25.6 61 16.1 56 56 ENE 5 7 29.93 1014 10 16 0.00 0.00
9:53 pm 21:53 Clear 78 25.6 60 15.6 54 54 E 3 6 29.94 1014 10 16 0.00 0.00
10:53 pm 22:53 Clear 72 22.2 62 16.7 71 71 Calm 29.94 1014 10 16 0.00 0.00
11:53 pm 23:53 Clear 68 20 59 15 73 73 NNE 8 13 29.94 1014 10 16 0.00 0.00

Powered by AerisWeather